GW4857 Weather Reports


time (UTC)temp
C
wind
direction
speed
KPH
gust
KPH
rain 1hr
cm
rain 24hr
cm
rain mn
cm
humidity
%
barometer
mb
20260506223018 15 354 4.8 14.5 0.00 0.00 0.00 82 1012.9
20260506222011 16 358 6.4 19.3 0.00 0.00 0.00 82 1012.8
20260506221524 15 14 8.0 14.5 0.00 0.00 0.00 82 1012.8
20260506221007 15 12 4.8 12.9 0.00 0.00 0.00 83 1012.9
20260506220507 15 335 4.8 12.9 0.00 0.00 0.00 83 1013.1
20260506220031 15 357 4.8 16.1 0.00 0.00 0.00 83 1013.1
20260506215507 15 337 6.4 16.1 0.00 0.00 0.00 83 1012.9
20260506215006 15 3 3.2 12.9 0.00 0.00 0.00 84 1013.0
20260506214527 15 1 4.8 14.5 0.00 0.00 0.00 83 1012.9
20260506214011 15 340 4.8 14.5 0.00 0.00 0.00 83 1012.9
20260506213509 15 1 4.8 12.9 0.00 0.00 0.00 83 1012.9
20260506213028 15 347 3.2 12.9 0.00 0.00 0.00 84 1013.0
20260506212514 15 360 4.8 12.9 0.00 0.00 0.00 83 1013.2
20260506212007 15 353 3.2 11.3 0.00 0.00 0.00 83 1013.2
20260506211505 15 329 4.8 11.3 0.00 0.00 0.00 82 1013.3
20260506211007 15 337 4.8 16.1 0.00 0.00 0.00 82 1013.2
20260506210506 15 332 3.2 16.1 0.00 0.00 0.00 82 1013.3
20260506210010 16 1 4.8 16.1 0.00 0.00 0.00 82 1013.2
20260506205509 15 328 4.8 14.5 0.00 0.00 0.00 83 1013.0
20260506205007 15 8 3.2 16.1 0.00 0.00 0.00 82 1013.3
20260506204506 15 18 6.4 16.1 0.00 0.00 0.00 82 1013.3
20260506204004 15 16 6.4 17.7 0.00 0.00 0.00 82 1013.2
20260506203504 15 314 6.4 17.7 0.00 0.00 0.00 82 1013.3
20260506203004 15 340 4.8 17.7 0.00 0.00 0.00 81 1013.4
20260506202503 16 359 6.4 17.7 0.00 0.00 0.00 81 1013.4
20260506202007 16 14 4.8 16.1 0.00 0.00 0.00 82 1013.2
20260506201506 15 277 4.8 16.1 0.00 0.00 0.00 83 1013.1
20260506201008 15 329 6.4 16.1 0.00 0.00 0.00 82 1013.2
20260506200507 15 338 3.2 12.9 0.00 0.00 0.00 83 1013.1
20260506200005 15 339 4.8 14.5 0.00 0.00 0.00 82 1013.2
20260506195506 16 1 6.4 14.5 0.00 0.00 0.00 81 1013.3
20260506195009 16 8 4.8 19.3 0.00 0.00 0.00 81 1013.2
20260506194508 16 318 8.0 19.3 0.00 0.00 0.00 80 1013.2
20260506194008 16 338 3.2 17.7 0.00 0.00 0.00 81 1013.2
20260506193512 16 347 3.2 17.7 0.00 0.00 0.00 81 1013.0
20260506193005 16 359 6.4 14.5 0.00 0.00 0.00 81 1013.2
20260506192504 16 299 4.8 14.5 0.00 0.00 0.00 80 1013.1
20260506192004 17 332 3.2 14.5 0.00 0.00 0.00 81 1013.2
20260506191506 17 134 3.2 14.5 0.00 0.00 0.00 82 1013.2
20260506191005 17 341 3.2 11.3 0.00 0.00 0.00 81 1013.2
20260506190504 17 260 4.8 11.3 0.00 0.00 0.00 81 1013.1
20260506190023 17 5 4.8 12.9 0.00 0.00 0.00 81 1013.1
20260506185508 17 311 3.2 12.9 0.00 0.00 0.00 82 1013.1
20260506185008 17 271 3.2 12.9 0.00 0.00 0.00 82 1013.0
20260506184516 18 342 3.2 14.5 0.00 0.00 0.00 81 1012.9
20260506184013 18 278 6.4 14.5 0.00 0.00 0.00 80 1012.9
20260506183505 18 321 4.8 14.5 0.00 0.00 0.00 80 1013.0
20260506183010 19 265 4.8 11.3 0.00 0.00 0.00 79 1012.9
20260506182507 20 310 3.2 12.9 0.00 0.00 0.00 77 1012.9
20260506182004 20 308 4.8 14.5 0.00 0.00 0.00 76 1012.8
20260506181515 21 350 6.4 16.1 0.00 0.00 0.00 75 1012.7
20260506181008 21 11 6.4 16.1 0.00 0.00 0.00 76 1012.7
20260506180505 21 321 3.2 14.5 0.00 0.00 0.00 76 1012.6
20260506180010 21 343 6.4 14.5 0.00 0.00 0.00 76 1012.5
20260506175506 21 347 6.4 14.5 0.00 0.00 0.00 76 1012.4
20260506175006 21 17 3.2 14.5 0.00 0.00 0.00 77 1012.5
20260506174515 21 340 4.8 12.9 0.00 0.00 0.00 75 1012.3
20260506174004 20 30 8.0 12.9 0.00 0.00 0.00 77 1012.1
20260506173505 20 15 3.2 12.9 0.00 0.00 0.00 79 1012.2
20260506173019 20 34 3.2 12.9 0.00 0.00 0.00 79 1012.2
20260506172506 20 6 6.4 12.9 0.00 0.00 0.00 80 1012.2
20260506172006 19 71 3.2 12.9 0.00 0.00 0.00 79 1012.2
20260506171520 19 13 4.8 16.1 0.00 0.00 0.00 81 1012.1
20260506171009 19 8 6.4 16.1 0.00 0.00 0.00 81 1012.1
20260506170505 18 15 3.2 16.1 0.00 0.00 0.00 81 1012.1
20260506170021 18 6 6.4 14.5 0.00 0.00 0.00 81 1012.1
20260506165508 18 8 4.8 14.5 0.00 0.00 0.00 83 1012.2
20260506165004 18 18 6.4 16.1 0.00 0.00 0.00 83 1012.0
20260506164511 18 35 6.4 16.1 0.00 0.00 0.00 84 1012.2
20260506164005 17 13 4.8 16.1 0.00 0.00 0.00 84 1012.1
20260506163504 17 15 4.8 12.9 0.00 0.00 0.00 85 1012.5
20260506163014 17 24 6.4 14.5 0.00 0.00 0.00 87 1012.6
20260506162505 16 13 4.8 14.5 0.00 0.00 0.00 90 1012.8
20260506162007 16 11 4.8 17.7 0.00 0.00 0.00 91 1013.0
20260506161518 15 20 4.8 17.7 0.00 0.00 0.00 90 1012.4
20260506161008 15 13 3.2 17.7 0.00 0.00 0.00 90 1012.9
20260506160510 15 4 8.0 19.3 0.00 0.00 0.00 90 1013.5
20260506160024 15 30 6.4 22.5 0.00 0.00 0.00 90 1013.8
20260506155510 15 38 11.3 22.5 0.00 0.00 0.00 90 1013.7
20260506155006 15 5 11.3 22.5 0.00 0.00 0.00 89 1013.6
20260506154528 15 13 11.3 22.5 0.00 0.00 0.00 89 1013.7
20260506154004 15 27 11.3 22.5 0.00 0.00 0.00 89 1013.9
20260506153503 15 336 4.8 19.3 0.00 0.00 0.00 90 1014.0
20260506153012 16 15 9.7 19.3 0.00 0.00 0.00 89 1013.7
20260506152505 16 11 6.4 24.1 0.00 0.00 0.00 89 1013.7
20260506152007 16 1 6.4 24.1 0.00 0.00 0.00 90 1013.4
20260506151517 16 1 9.7 24.1 0.00 0.00 0.00 89 1013.6
20260506151009 16 17 9.7 24.1 0.00 0.00 0.00 90 1013.1
20260506150509 16 5 6.4 20.9 0.00 0.00 0.00 90 1012.9
20260506150023 16 5 6.4 19.3 0.00 0.00 0.00 90 1012.3
20260506145508 16 9 9.7 24.1 0.00 0.00 0.00 89 1012.2
20260506145007 17 345 12.9 24.1 0.00 0.00 0.00 89 1012.2
20260506144526 17 360 11.3 29.0 0.00 0.00 0.00 89 1011.8
20260506144010 17 359 6.4 29.0 0.00 0.00 0.00 89 1011.7
20260506143510 17 11 12.9 24.1 0.00 0.00 0.00 89 1011.7
20260506143031 18 349 11.3 22.5 0.00 0.00 0.00 89 1011.7
20260506142508 18 5 6.4 19.3 0.00 0.00 0.00 89 1011.8
20260506142007 18 18 9.7 17.7 0.00 0.00 0.00 89 1011.3
20260506141512 18 359 8.0 16.1 0.00 0.00 0.00 89 1011.1
20260506141011 19 351 6.4 17.7 0.00 0.00 0.00 89 1011.1
20260506140512 19 333 6.4 17.7 0.00 0.00 0.00 89 1010.9
20260506140020 20 1 8.0 22.5 0.00 0.00 0.00 89 1010.9
20260506135506 21 3 8.0 22.5 0.00 0.00 0.00 88 1011.2
20260506135012 22 8 6.4 16.1 0.00 0.00 0.00 89 1010.9
20260506134527 23 78 3.2 8.0 0.00 0.00 0.00 92 1010.6
20260506134010 23 80 3.2 6.4 0.00 0.00 0.00 92 1010.4
20260506133509 23 81 0.0 1.6 0.00 0.00 0.00 93 1010.1
20260506133024 23 81 0.0 4.8 0.00 0.00 0.00 93 1010.3
20260506132511 22 81 0.0 4.8 0.00 0.00 0.00 93 1010.3
20260506132012 22 81 0.0 6.4 0.00 0.00 0.00 93 1010.3
20260506131528 22 81 1.6 6.4 0.00 0.00 0.00 93 1010.2
20260506131008 22 81 1.6 6.4 0.00 0.00 0.00 93 1010.2
20260506130505 22 139 0.0 3.2 0.00 0.00 0.00 93 1009.9
20260506130020 22 139 0.0 3.2 0.00 0.00 0.00 93 1009.7
20260506125508 22 139 0.0 4.8 0.00 0.00 0.00 93 1009.8
20260506125008 22 139 0.0 4.8 0.00 0.00 0.00 93 1009.8
20260506124522 22 140 0.0 3.2 0.00 0.00 0.00 93 1009.7
20260506124010 22 140 0.0 0.0 0.00 0.00 0.00 93 1009.5
20260506123512 22 140 0.0 0.0 0.00 0.00 0.00 93 1009.6
20260506123026 22 140 0.0 3.2 0.00 0.00 0.00 93 1009.6
20260506122507 22 140 0.0 3.2 0.00 0.00 0.00 93 1009.5
20260506122014 22 140 0.0 3.2 0.00 0.00 0.00 93 1009.4
20260506121514 22 140 0.0 1.6 0.00 0.00 0.00 93 1009.5
20260506121010 21 140 0.0 1.6 0.00 0.00 0.00 93 1009.4
20260506120512 21 140 0.0 1.6 0.00 0.00 0.00 92 1009.5
20260506120026 21 140 0.0 0.0 0.00 0.00 0.00 92 1009.5
20260506115514 22 141 0.0 0.0 0.00 0.00 0.00 92 1009.4
20260506115006 22 140 0.0 1.6 0.00 0.00 0.00 92 1009.5
20260506114520 22 140 0.0 1.6 0.00 0.00 0.00 92 1009.4
20260506114007 22 140 0.0 3.2 0.00 0.00 0.00 92 1009.4
20260506113507 22 140 0.0 3.2 0.00 0.00 0.00 92 1009.3
20260506113022 22 140 0.0 3.2 0.00 0.00 0.00 92 1009.4
20260506112512 22 140 0.0 3.2 0.00 0.00 0.00 92 1009.5
20260506112003 22 140 0.0 3.2 0.00 0.00 0.00 92 1009.6
20260506111505 22 140 0.0 4.8 0.00 0.00 0.00 91 1009.5
20260506111004 22 141 0.0 6.4 0.00 0.00 0.00 91 1009.4
20260506110504 22 140 1.6 6.4 0.00 0.00 0.00 91 1009.4
20260506110014 22 140 1.6 6.4 0.00 0.00 0.00 91 1009.4
20260506105505 22 140 0.0 4.8 0.00 0.00 0.00 91 1009.4
20260506105006 22 139 0.0 4.8 0.00 0.00 0.00 91 1009.4
20260506104513 22 139 0.0 4.8 0.00 0.00 0.00 91 1009.4
20260506104003 22 139 1.6 4.8 0.00 0.00 0.00 91 1009.5
20260506103508 22 139 1.6 4.8 0.00 0.00 0.00 91 1009.3
20260506103024 22 139 0.0 4.8 0.00 0.00 0.00 91 1009.3
20260506102504 22 139 0.0 4.8 0.00 0.00 0.00 91 1009.2
20260506102004 22 139 1.6 4.8 0.00 0.00 0.00 90 1009.1
20260506101504 22 139 0.0 4.8 0.00 0.00 0.00 90 1009.1
20260506101005 23 139 0.0 4.8 0.00 0.00 0.00 90 1009.1
20260506100504 23 139 0.0 4.8 0.00 0.00 0.00 90 1009.0
20260506100012 23 139 0.0 4.8 0.00 0.00 0.00 90 1008.9
20260506095506 23 139 0.0 3.2 0.00 0.00 0.00 89 1008.8
20260506095007 23 139 0.0 4.8 0.00 0.00 0.00 89 1008.8
20260506094515 23 139 0.0 6.4 0.00 0.00 0.00 89 1008.8
20260506094005 23 139 1.6 6.4 0.00 0.00 0.00 89 1008.7
20260506093507 23 139 1.6 4.8 0.00 0.00 0.00 89 1008.6
20260506093021 23 139 0.0 6.4 0.00 0.00 0.00 88 1008.5
20260506092505 23 139 0.0 6.4 0.00 0.00 0.00 88 1008.5
20260506092011 23 136 0.0 4.8 0.00 0.00 0.00 88 1008.5
20260506091506 23 136 0.0 4.8 0.00 0.00 0.00 88 1008.5
20260506091003 23 136 1.6 6.4 0.00 0.00 0.00 88 1008.5
20260506090503 23 136 1.6 6.4 0.00 0.00 0.00 88 1008.5
20260506090017 23 134 0.0 8.0 0.00 0.00 0.00 88 1008.5
20260506085503 23 138 1.6 8.0 0.00 0.00 0.00 88 1008.5
20260506085005 23 84 3.2 8.0 0.00 0.00 0.00 88 1008.3
20260506084525 23 131 0.0 6.4 0.00 0.00 0.00 88 1008.2
20260506084005 23 126 1.6 6.4 0.00 0.00 0.00 88 1008.4
20260506083508 23 169 1.6 9.7 0.00 0.00 0.00 88 1008.5
20260506083008 23 127 0.0 9.7 0.00 0.00 0.00 88 1008.3
20260506082507 23 179 1.6 6.4 0.00 0.00 0.00 87 1008.3
20260506082006 23 175 1.6 9.7 0.00 0.00 0.00 87 1008.2
20260506081506 23 184 1.6 9.7 0.00 0.00 0.00 87 1008.3
20260506081009 23 193 1.6 11.3 0.00 0.00 0.00 87 1008.4
20260506080507 23 192 3.2 12.9 0.00 0.00 0.00 87 1008.5
20260506073508 23 157 3.2 11.3 0.00 0.00 0.00 87 1008.3
20260506073010 23 197 1.6 12.9 0.00 0.00 0.00 87 1008.4
20260506072507 23 157 3.2 14.5 0.00 0.00 0.00 87 1008.5
20260506072007 23 127 6.4 14.5 0.00 0.00 0.00 87 1008.4
20260506071509 23 112 3.2 11.3 0.00 0.00 0.00 87 1008.5
20260506071008 23 156 3.2 11.3 0.00 0.00 0.00 87 1008.5
20260506070507 23 165 3.2 19.3 0.00 0.00 0.00 87 1008.4
20260506062506 23 187 1.6 9.7 0.00 0.00 0.00 87 1008.3
20260506062009 23 168 3.2 9.7 0.00 0.00 0.00 87 1008.2
20260506061521 23 156 0.0 9.7 0.00 0.00 0.00 87 1008.5
20260506061008 23 157 1.6 12.9 0.00 0.00 0.00 87 1008.2
20260506060505 23 193 3.2 12.9 0.00 0.00 0.00 88 1008.1
20260506051007 23 159 3.2 8.0 0.00 0.00 0.00 88 1008.6
20260506050507 23 136 1.6 8.0 0.00 0.00 0.00 88 1008.6
20260506045007 23 128 1.6 9.7 0.00 0.00 0.00 88 1008.2
20260506044532 23 122 3.2 12.9 0.00 0.00 0.00 88 1008.3
20260506044008 23 107 1.6 12.9 0.00 0.00 0.00 88 1008.5
20260506043510 23 215 3.2 11.3 0.00 0.00 0.00 88 1008.5
20260506043024 23 174 4.8 9.7 0.00 0.00 0.00 88 1008.6
20260506042510 23 156 1.6 8.0 0.00 0.00 0.00 87 1008.5
20260506042008 23 154 3.2 9.7 0.00 0.00 0.00 87 1008.2
20260506041538 23 105 1.6 9.7 0.00 0.00 0.00 87 1008.2
20260506041012 23 166 3.2 9.7 0.00 0.00 0.00 87 1008.2
20260506040507 23 165 1.6 9.7 0.00 0.00 0.00 87 1008.2
20260506040013 23 120 3.2 9.7 0.00 0.00 0.00 87 1008.1
20260506035504 23 103 1.6 14.5 0.00 0.00 0.00 86 1008.1
20260506035010 23 212 3.2 14.5 0.00 0.00 0.00 86 1008.0
20260506034504 23 124 3.2 9.7 0.00 0.00 0.00 86 1007.9
20260506034004 23 130 1.6 9.7 0.00 0.00 0.00 86 1007.7
20260506033503 23 162 1.6 8.0 0.00 0.00 0.00 85 1007.9
20260506033004 23 155 1.6 8.0 0.00 0.00 0.00 85 1007.8
20260506032503 23 154 1.6 6.4 0.00 0.00 0.00 85 1007.9
20260506032005 23 169 1.6 6.4 0.00 0.00 0.00 85 1007.7
20260506031506 23 171 1.6 4.8 0.00 0.00 0.00 85 1007.7
20260506031006 23 171 0.0 3.2 0.00 0.00 0.00 84 1007.6
20260506030502 23 171 1.6 4.8 0.00 0.00 0.00 84 1007.5
20260506030006 23 172 0.0 4.8 0.00 0.00 0.00 84 1007.4
20260506025508 24 172 0.0 4.8 0.00 0.00 0.00 83 1007.4
20260506025004 24 172 0.0 6.4 0.00 0.00 0.00 83 1007.3
20260506024515 24 172 0.0 8.0 0.00 0.00 0.00 83 1007.2
20260506024011 24 174 0.0 8.0 0.00 0.00 0.00 83 1007.1
20260506023504 24 173 0.0 4.8 0.00 0.00 0.00 82 1007.0
20260506023012 24 169 0.0 8.0 0.00 0.00 0.00 82 1006.9
20260506022503 25 169 0.0 8.0 0.00 0.00 0.00 82 1006.9
20260506022004 25 148 1.6 6.4 0.00 0.00 0.00 82 1006.8
20260506021503 25 156 0.0 9.7 0.00 0.00 0.00 81 1006.8
20260506021009 25 157 1.6 9.7 0.00 0.00 0.00 81 1006.7
20260506020510 25 141 0.0 4.8 0.00 0.00 0.00 81 1006.6
20260506020006 25 143 1.6 4.8 0.00 0.00 0.00 81 1006.6
20260506015503 25 144 1.6 4.8 0.00 0.00 0.00 81 1006.7
20260506015003 25 144 0.0 6.4 0.00 0.00 0.00 81 1006.6
20260506014514 25 144 1.6 6.4 0.00 0.00 0.00 80 1006.4
20260506014007 25 179 0.0 6.4 0.00 0.00 0.00 80 1006.3
20260506013503 25 146 0.0 6.4 0.00 0.00 0.00 79 1006.3
20260506013014 25 136 1.6 6.4 0.00 0.00 0.00 79 1006.3
20260506012507 25 155 1.6 6.4 0.00 0.00 0.00 78 1006.2
20260506012008 25 156 1.6 6.4 0.00 0.00 0.00 78 1006.3
20260506011531 25 158 1.6 8.0 0.00 0.00 0.00 77 1006.2
20260506011005 25 191 1.6 8.0 0.00 0.00 0.00 77 1006.1
20260506010502 26 140 0.0 9.7 0.00 0.00 0.00 76 1006.1
20260506010007 26 140 3.2 9.7 0.00 0.00 0.00 76 1006.1
20260506005503 26 143 1.6 8.0 0.00 0.00 0.00 76 1006.1
20260506005007 26 139 1.6 8.0 0.00 0.00 0.00 75 1006.1
20260506004516 26 141 1.6 8.0 0.00 0.00 0.00 75 1006.1
20260506004007 26 152 1.6 6.4 0.00 0.00 0.00 75 1006.2
20260506003505 26 154 1.6 9.7 0.00 0.00 0.00 75 1006.3
20260506003012 26 156 3.2 9.7 0.00 0.00 0.00 74 1006.3
20260506002507 26 157 3.2 9.7 0.00 0.00 0.00 74 1006.4
20260506002005 26 124 1.6 8.0 0.00 0.00 0.00 75 1006.4
20260506001514 27 176 3.2 8.0 0.00 0.00 0.00 74 1006.4
20260506001008 27 134 3.2 8.0 0.00 0.00 0.00 74 1006.3
20260506000505 27 147 0.0 8.0 0.00 0.00 0.00 74 1006.3
20260506000020 27 148 3.2 9.7 0.00 0.00 0.00 72 1006.4
20260505235502 27 158 0.0 9.7 0.00 0.00 0.00 73 1006.4
20260505235003 27 168 1.6 8.0 0.00 0.00 0.00 73 1006.4
20260505234509 27 181 1.6 8.0 0.00 0.00 0.00 72 1006.5
20260505234007 27 159 1.6 8.0 0.00 0.00 0.00 72 1006.4
20260505233504 27 102 1.6 11.3 0.00 0.00 0.00 71 1006.4
20260505233022 27 117 3.2 11.3 0.00 0.00 0.00 71 1006.4
20260505232505 27 201 3.2 9.7 0.00 0.00 0.00 71 1006.3
20260505232010 27 163 3.2 11.3 0.00 0.00 0.00 71 1006.2
20260505231516 27 186 3.2 11.3 0.00 0.00 0.00 71 1006.1
20260505231004 27 176 3.2 14.5 0.00 0.00 0.00 71 1006.1
20260505230505 27 128 3.2 14.5 0.00 0.00 0.00 71 1006.0
20260505230021 27 138 3.2 12.9 0.00 0.00 0.00 71 1006.1
20260505225507 27 167 3.2 12.9 0.00 0.00 0.00 71 1006.0
20260505225007 27 145 3.2 11.3 0.00 0.00 0.00 70 1005.9
20260505224524 27 86 3.2 11.3 0.00 0.00 0.00 71 1005.9
20260505224002 27 172 1.6 11.3 0.00 0.00 0.00 72 1006.0
20260505223505 27 93 4.8 11.3 0.00 0.00 0.00 71 1006.1